When you browse on this site, cookies collect data to enhance your experience and personalize the content and advertising you see.
Visit our Privacy Policy to learn more. By continuing to use the site, you agree to this use of cookies and data.
  • In Hungary
  • List of Countries
  • For 7 days
  • Water Temperature
  • Weather Map
  • News
  • Weather Widgets
  • user-avatar
    Login

    Hourly Weather Namaro

    Today, 10 December, Tuesday

    Time Temperature Precipitation Wind Pressure Humidity
    00:00 +25°C° 0 mm 3 mps 740 mmHg 14%
    01:00 +24°C° 0 mm 2 mps 739 mmHg 15%
    02:00 +24°C° 0 mm 2 mps 739 mmHg 15%
    03:00 +23°C° 0 mm 2 mps 739 mmHg 16%
    04:00 +22°C° 0 mm 3 mps 739 mmHg 16%
    05:00 +22°C° 0 mm 3 mps 739 mmHg 16%
    06:00 +22°C° 0 mm 3 mps 740 mmHg 17%
    07:00 +25°C° 0 mm 4 mps 740 mmHg 15%
    08:00 +28°C° 0 mm 4 mps 741 mmHg 13%
    09:00 +30°C° 0 mm 5 mps 741 mmHg 11%
    10:00 +33°C° 0 mm 5 mps 741 mmHg 10%
    11:00 +35°C° 0 mm 5 mps 740 mmHg 8%
    12:00 +37°C° 0 mm 5 mps 739 mmHg 7%
    13:00 +37°C° 0 mm 5 mps 739 mmHg 7%
    14:00 +39°C° 0 mm 5 mps 738 mmHg 6%
    15:00 +39°C° 0 mm 5 mps 737 mmHg 5%
    16:00 +36°C° 0 mm 5 mps 738 mmHg 6%
    17:00 +33°C° 0 mm 4 mps 738 mmHg 8%
    18:00 +30°C° 0 mm 3 mps 738 mmHg 9%
    19:00 +29°C° 0 mm 3 mps 739 mmHg 9%
    20:00 +28°C° 0 mm 3 mps 739 mmHg 10%
    21:00 +27°C° 0 mm 4 mps 740 mmHg 10%
    22:00 +27°C° 0 mm 3 mps 740 mmHg 11%
    23:00 +26°C° 0 mm 3 mps 740 mmHg 12%

    Tomorrow, 11 December, Wednesday

    Time Temperature Precipitation Wind Pressure Humidity
    00:00 +25°C° 0 mm 3 mps 739 mmHg 12%
    01:00 +25°C° 0 mm 3 mps 739 mmHg 13%
    02:00 +25°C° 0 mm 3 mps 739 mmHg 13%
    03:00 +23°C° 0 mm 4 mps 739 mmHg 13%
    04:00 +24°C° 0 mm 3 mps 739 mmHg 14%
    05:00 +22°C° 0 mm 3 mps 739 mmHg 15%
    06:00 +22°C° 0 mm 3 mps 739 mmHg 15%
    07:00 +25°C° 0 mm 4 mps 740 mmHg 13%
    08:00 +28°C° 0 mm 4 mps 741 mmHg 12%
    09:00 +32°C° 0 mm 4 mps 741 mmHg 10%
    10:00 +34°C° 0 mm 5 mps 741 mmHg 9%
    11:00 +35°C° 0 mm 5 mps 740 mmHg 8%
    12:00 +38°C° 0 mm 6 mps 739 mmHg 7%
    13:00 +39°C° 0 mm 6 mps 739 mmHg 6%
    14:00 +39°C° 0 mm 6 mps 738 mmHg 6%
    15:00 +39°C° 0 mm 6 mps 737 mmHg 6%
    16:00 +36°C° 0 mm 5 mps 738 mmHg 7%
    17:00 +34°C° 0 mm 4 mps 738 mmHg 8%
    18:00 +30°C° 0 mm 4 mps 738 mmHg 9%
    19:00 +29°C° 0 mm 4 mps 738 mmHg 10%
    20:00 +28°C° 0 mm 4 mps 739 mmHg 10%
    21:00 +27°C° 0 mm 3 mps 739 mmHg 11%
    22:00 +27°C° 0 mm 3 mps 739 mmHg 11%
    23:00 +26°C° 0 mm 3 mps 739 mmHg 12%

    Day after tomorrow, 12 December, Thursday

    Time Temperature Precipitation Wind Pressure Humidity
    00:00 +25°C° 0 mm 3 mps 739 mmHg 13%
    01:00 +24°C° 0 mm 3 mps 739 mmHg 13%
    02:00 +24°C° 0 mm 3 mps 739 mmHg 13%
    03:00 +23°C° 0 mm 4 mps 739 mmHg 14%
    04:00 +22°C° 0 mm 4 mps 739 mmHg 14%
    05:00 +22°C° 0 mm 4 mps 739 mmHg 14%
    06:00 +21°C° 0 mm 4 mps 739 mmHg 15%
    07:00 +23°C° 0 mm 5 mps 740 mmHg 14%
    08:00 +26°C° 0 mm 6 mps 741 mmHg 14%
    09:00 +28°C° 0 mm 7 mps 741 mmHg 13%
    10:00 +32°C° 0 mm 7 mps 741 mmHg 12%
    11:00 +34°C° 0 mm 7 mps 741 mmHg 11%
    12:00 +36°C° 0 mm 7 mps 740 mmHg 9%
    13:00 +36°C° 0 mm 6 mps 740 mmHg 9%
    14:00 +38°C° 0 mm 6 mps 739 mmHg 8%
    15:00 +37°C° 0 mm 5 mps 739 mmHg 8%
    16:00 +35°C° 0 mm 5 mps 739 mmHg 9%
    17:00 +32°C° 0 mm 4 mps 739 mmHg 10%
    18:00 +29°C° 0 mm 3 mps 739 mmHg 12%
    19:00 +28°C° 0 mm 3 mps 739 mmHg 12%
    20:00 +27°C° 0 mm 3 mps 740 mmHg 13%
    21:00 +27°C° 0 mm 4 mps 740 mmHg 13%
    22:00 +26°C° 0 mm 3 mps 740 mmHg 14%
    23:00 +25°C° 0 mm 3 mps 740 mmHg 15%

    13 December, Friday

    Time Temperature Precipitation Wind Pressure Humidity
    00:00 +25°C° 0 mm 3 mps 740 mmHg 15%
    01:00 +23°C° 0 mm 4 mps 740 mmHg 16%
    02:00 +23°C° 0 mm 4 mps 740 mmHg 17%
    03:00 +22°C° 0 mm 4 mps 740 mmHg 18%
    04:00 +21°C° 0 mm 4 mps 740 mmHg 20%
    05:00 +21°C° 0 mm 4 mps 741 mmHg 21%
    06:00 +20°C° 0 mm 4 mps 741 mmHg 22%
    07:00 +22°C° 0 mm 5 mps 742 mmHg 19%
    08:00 +24°C° 0 mm 6 mps 742 mmHg 15%
    09:00 +27°C° 0 mm 7 mps 743 mmHg 12%
    10:00 +29°C° 0 mm 7 mps 742 mmHg 10%
    11:00 +32°C° 0 mm 7 mps 742 mmHg 9%
    12:00 +34°C° 0 mm 7 mps 741 mmHg 7%
    13:00 +35°C° 0 mm 7 mps 741 mmHg 7%
    14:00 +35°C° 0 mm 7 mps 740 mmHg 7%
    15:00 +36°C° 0 mm 6 mps 739 mmHg 6%
    16:00 +33°C° 0 mm 6 mps 739 mmHg 7%
    17:00 +30°C° 0 mm 5 mps 739 mmHg 8%
    18:00 +28°C° 0 mm 4 mps 739 mmHg 8%
    19:00 +27°C° 0 mm 4 mps 740 mmHg 9%
    20:00 +26°C° 0 mm 4 mps 741 mmHg 9%
    21:00 +25°C° 0 mm 4 mps 741 mmHg 10%
    22:00 +24°C° 0 mm 3 mps 741 mmHg 10%
    23:00 +24°C° 0 mm 3 mps 741 mmHg 11%

    14 December, Saturday

    Time Temperature Precipitation Wind Pressure Humidity
    00:00 +22°C° 0 mm 3 mps 741 mmHg 11%
    01:00 +22°C° 0 mm 3 mps 741 mmHg 12%
    02:00 +21°C° 0 mm 3 mps 741 mmHg 14%
    03:00 +21°C° 0 mm 4 mps 740 mmHg 15%
    04:00 +20°C° 0 mm 4 mps 740 mmHg 13%
    05:00 +20°C° 0 mm 4 mps 741 mmHg 12%
    06:00 +19°C° 0 mm 4 mps 741 mmHg 10%
    07:00 +22°C° 0 mm 5 mps 741 mmHg 9%
    08:00 +25°C° 0 mm 5 mps 742 mmHg 9%
    09:00 +27°C° 0 mm 6 mps 742 mmHg 8%
    10:00 +29°C° 0 mm 6 mps 742 mmHg 7%
    11:00 +32°C° 0 mm 6 mps 741 mmHg 7%
    12:00 +34°C° 0 mm 6 mps 741 mmHg 7%
    13:00 +35°C° 0 mm 6 mps 740 mmHg 7%
    14:00 +35°C° 0 mm 5 mps 740 mmHg 7%
    15:00 +36°C° 0 mm 5 mps 739 mmHg 7%
    16:00 +33°C° 0 mm 4 mps 739 mmHg 8%
    17:00 +30°C° 0 mm 4 mps 739 mmHg 8%
    18:00 +28°C° 0 mm 3 mps 739 mmHg 9%
    19:00 +27°C° 0 mm 4 mps 740 mmHg 10%
    20:00 +26°C° 0 mm 4 mps 740 mmHg 10%
    21:00 +25°C° 0 mm 4 mps 741 mmHg 10%
    22:00 +23°C° 0 mm 4 mps 741 mmHg 10%
    23:00 +23°C° 0 mm 4 mps 741 mmHg 10%

    15 December, Sunday

    Time Temperature Precipitation Wind Pressure Humidity
    00:00 +22°C° 0 mm 3 mps 741 mmHg 10%
    01:00 +22°C° 0 mm 4 mps 740 mmHg 10%
    02:00 +21°C° 0 mm 4 mps 740 mmHg 10%
    03:00 +20°C° 0 mm 4 mps 740 mmHg 11%
    04:00 +20°C° 0 mm 4 mps 740 mmHg 11%
    05:00 +19°C° 0 mm 4 mps 740 mmHg 11%
    06:00 +19°C° 0 mm 4 mps 740 mmHg 11%
    07:00 +21°C° 0 mm 5 mps 741 mmHg 9%
    08:00 +23°C° 0 mm 6 mps 741 mmHg 8%
    09:00 +26°C° 0 mm 6 mps 742 mmHg 6%
    10:00 +28°C° 0 mm 6 mps 742 mmHg 6%
    11:00 +30°C° 0 mm 6 mps 741 mmHg 5%
    12:00 +33°C° 0 mm 7 mps 741 mmHg 4%
    13:00 +34°C° 0 mm 6 mps 740 mmHg 4%
    14:00 +35°C° 0 mm 6 mps 739 mmHg 4%
    15:00 +35°C° 0 mm 5 mps 739 mmHg 4%
    16:00 +33°C° 0 mm 5 mps 739 mmHg 5%
    17:00 +30°C° 0 mm 4 mps 739 mmHg 5%
    18:00 +27°C° 0 mm 4 mps 739 mmHg 6%
    19:00 +26°C° 0 mm 4 mps 739 mmHg 6%
    20:00 +25°C° 0 mm 4 mps 740 mmHg 6%
    21:00 +24°C° 0 mm 3 mps 740 mmHg 7%
    22:00 +24°C° 0 mm 3 mps 740 mmHg 7%
    23:00 +22°C° 0 mm 3 mps 740 mmHg 7%
    Show more